STARLINK-34418, 64461

Orbit data source: Space-Track

STARLINK-34418, 64461 is a payload satellite owned by SpaceX/Seattle (US) in LEO that was launched on Wed, 18 Jun 2025 UTC via an FALCON 9 launch vehicle from the Air Force Eastern Test Range (AFETR). Payload-class satellites include a variety of spacecraft equipped with specific instruments for various scientific and technological missions. These include communications satellites like Starlink; space stations such as the ISS; scientific satellites like the Hubble; Earth observation satellites from companies like Planet Labs, Umbra, and HawkEye 360; GPS; miniature CubeSats for education and research; and military/defense satellites.

Loading next visibility...
Identifier
64461, 2025-130Z
Orbit
LEO
Country
Flag of USUS
Related business
Manufacturer
SpaceX/Seattle
Mission
Operational Commercial Communications
Bus & Motor
STARLINK V2MO, Unknown motor
Mass
575 kg wet, ~530 kg dry
Launch date (UTC)
2025-06-18 (1 year ago)
Launch vehicle
FALCON 9
Launch site
Air Force Eastern Test Range (AFETR)
Object type
Payload
Rocket body
Debris
Shape & HBR
Box + 2 Pan, 17.7 m
Radar Cross Section
36.964 m², Large (>1 m²)

Expand to show TLE details & history
Last TLE update: 1 day ago

TLE from 1 day ago
0 STARLINK-34418
1 64461U 25130Z   26170.86469759  .00018326  00000-0  62915-3 0  9998
2 64461  53.1602 334.1430 0000752  70.8620 289.2462 15.30210128 56349
Epoch: 2026-06-19T20:45Z
TLE epoch observation values (Epoch: 2026-06-19T20:45:09.871Z)
Latitude
-0.00005°
Longitude
114.76428°
Altitude
475.915 km
Speed
7.629 km/s
True Right ascension
22h 16m 34s
True Declination
0° 00' 00"
Sunlit
Object was in full shadow at epoch
Visualization orbit readout
Latitude
Unknown
Longitude
Unknown
Altitude
Unknown
Speed
Unknown
Apparent Right ascension
Unknown
Apparent Declination
Unknown
Sunlit
N/A
Visualization observer readout
Local Sidereal Time
07:12:32
Azimuth
Unknown
Elevation
Unknown
Doppler factor
Unknown
Orbital elements
Apogee altitude
475.957 km
Perigee altitude
474.926 km
Semi-major axis
6,853.578 km
Eccentricity
0.00008
Inclination
53.1602°
RAAN
334.143°
Arg. of periapsis
70.862°
True anomaly
289.23806°
Mean anomaly
289.2462°
Eccentric anomaly
289.24213°
Mean motion
3.82531 °/min
Orbital period
94.11 mins
BSTAR
0.00062915
Loading maneuver chart data...
Computing Atmospheric mass density...
Loading historical data...
Loading historical data...
Loading historical data...
Loading historical data...
Loading historical data...
Loading historical data...
Loading historical data...

Documentation

Showing up to 5 results
|